Manston, United Kingdom

7:15 PM GMT on February 22, 2017 (GMT +0000)
Manston

Weather History for EGMH - October, 2012

Change the Weather History Date:

Wednesday, October 24, 2012

  Actual Average Record
Temperature  
Mean Temperature 56 °F -  
Max Temperature 59 °F 52 °F - ()
Min Temperature 54 °F 41 °F - ()
Degree Days  
Heating Degree Days 8    
Growing Degree Days 6 (Base 50)    
Moisture  
Dew Point 55 °F    
Average Humidity 94    
Maximum Humidity 100    
Minimum Humidity 82    
Precipitation  
Precipitation 0.00 in 0.08 in - ()
Sea Level Pressure  
Sea Level Pressure 30.09 in    
Wind  
Wind Speed 9 mph ()    
Max Wind Speed 15 mph    
Max Gust Speed -    
Visibility 1.6 miles    
Events Fog    
T = Trace of Precipitation, MM = Missing Value Source: Averaged Metar Reports

Daily Weather History Graph

Daily Weather History Graph

Search for Another Location

Airport or City:

Trip Planner

Search our weather history database for the weather conditions in past years. The results will help you decide how hot, cold, wet, or windy it might be!

Date:

Astronomy

Oct. 24, 2012 Rise Set
Actual Time 7:34 AM BST 5:42 PM BST
Civil Twilight 6:59 AM BST 6:16 PM BST
Nautical Twilight 6:21 AM BST 6:55 PM BST
Astronomical Twilight 5:42 AM BST 7:33 PM BST
Moon 3:20 PM BST (10/24) 1:39 AM BST (10/24)
Length of Visible Light 11h 16m
Length of Day
10h 08m
Waxing Gibbous, 74% of the Moon is Illuminated
Oct 24
Waxing Gibbous
Oct 29
Full
Nov 7
Last Quarter
Nov 13
New
Nov 20
First Quarter

Hourly Weather History & Observations

Time (BST) Temp. Dew Point Humidity Pressure Visibility Wind Dir Wind Speed Gust Speed Precip Events Conditions
12:50 AM 56 °F 56 °F 100% 30.18 in 0 mi North 5.8 mph - - Fog Fog
3:50 AM 56 °F 56 °F 100% 30.14 in 1 mi NNE 5.8 mph - - Fog Fog
6:50 AM 55 °F 55 °F 100% 30.11 in 1 mi East 5.8 mph - -   Mist
7:20 AM 55.4 °F 55.4 °F 100% 30.09 in 1.6 mi ENE 5.8 mph - N/A   Partly Cloudy
7:50 AM 55.4 °F 55.4 °F 100% 30.12 in 1.4 mi NE 5.8 mph - N/A   Partly Cloudy
8:20 AM 55.4 °F 55.4 °F 100% 30.12 in 1.4 mi ENE 6.9 mph - N/A   Mist
8:50 AM 55.4 °F 55.4 °F 100% 30.12 in 1.6 mi ENE 6.9 mph - N/A   Scattered Clouds
9:20 AM 57.2 °F 57.2 °F 100% 30.12 in 1.6 mi ENE 9.2 mph - N/A   Scattered Clouds
9:50 AM 57 °F 57 °F 100% 30.13 in 2 mi ENE 10.4 mph - -   Mist
9:50 AM 59.0 °F 55.4 °F 88% 30.12 in 1.6 mi ENE 11.5 mph - N/A   Scattered Clouds
10:20 AM 59.0 °F 57.2 °F 94% 30.12 in 1.5 mi ENE 15.0 mph - N/A   Scattered Clouds
10:50 AM 59.0 °F 57.2 °F 94% 30.12 in 1.6 mi East 15.0 mph - N/A   Mostly Cloudy
11:20 AM 59.0 °F 55.4 °F 88% 30.12 in 1.6 mi East 15.0 mph - N/A   Mostly Cloudy
11:50 AM 57.2 °F 55.4 °F 94% 30.12 in 1.2 mi East 15.0 mph - N/A   Mostly Cloudy
12:20 PM 57.2 °F 55.4 °F 94% 30.12 in 1.4 mi East 15.0 mph - N/A   Mostly Cloudy
12:50 PM 58 °F 58 °F 100% 30.11 in 2 mi East 13.8 mph - -   Mist
12:50 PM 57.2 °F 55.4 °F 94% 30.09 in 1.2 mi East 15.0 mph - N/A   Mostly Cloudy
1:20 PM 59.0 °F 55.4 °F 88% 30.09 in 1.4 mi East 13.8 mph - N/A   Mostly Cloudy
1:50 PM 59.0 °F 55.4 °F 88% 30.09 in 1.4 mi East 11.5 mph - N/A   Mostly Cloudy
2:20 PM 59.0 °F 53.6 °F 82% 30.09 in 1.6 mi East 11.5 mph - N/A   Haze
2:50 PM 59.0 °F 55.4 °F 88% 30.09 in 1.6 mi East 11.5 mph - N/A   Haze
3:20 PM 59.0 °F 53.6 °F 82% 30.06 in 1.6 mi ENE 13.8 mph - N/A   Haze
3:50 PM 58 °F 57 °F 94% 30.07 in 3 mi East 13.8 mph - -   Mist
3:50 PM 57.2 °F 53.6 °F 88% 30.06 in 1.6 mi East 15.0 mph - N/A   Haze
4:20 PM 57.2 °F 53.6 °F 88% 30.06 in 1.6 mi East 12.7 mph - N/A   Haze
4:50 PM 57.2 °F 53.6 °F 88% 30.06 in 1.6 mi East 11.5 mph - N/A   Haze
5:20 PM 57.2 °F 55.4 °F 94% 30.06 in 1.2 mi ENE 9.2 mph - N/A   Haze
5:50 PM 57.2 °F 53.6 °F 88% 30.06 in 1.6 mi NE 9.2 mph - N/A   Haze
6:20 PM 57.2 °F 55.4 °F 94% 30.06 in 1.9 mi ENE 8.1 mph - N/A   Mist
6:50 PM 56 °F 56 °F 100% 30.06 in 2 mi ENE 5.8 mph - -   Mist
6:50 PM 55.4 °F 55.4 °F 100% 30.06 in 1.9 mi NE 9.2 mph - N/A   Mist
7:20 PM 55.4 °F 53.6 °F 94% 30.06 in 1.9 mi NE 9.2 mph - N/A   Mist
7:50 PM 55.4 °F 55.4 °F 100% 30.06 in 1.9 mi NE 11.5 mph - N/A   Partly Cloudy
8:20 PM 57.2 °F 55.4 °F 94% 30.06 in 1.9 mi NE 11.5 mph - N/A   Scattered Clouds
8:50 PM 57.2 °F 55.4 °F 94% 30.06 in 1.9 mi ENE 15.0 mph - N/A   Mostly Cloudy
9:20 PM 57.2 °F 55.4 °F 94% 30.06 in 1.9 mi ENE 15.0 mph - N/A   Mostly Cloudy
9:50 PM 57 °F 57 °F 98% 30.08 in 1 mi ENE 11.5 mph - -   Mist
9:50 PM 57.2 °F 55.4 °F 94% 30.06 in 1.9 mi ENE 15.0 mph - N/A   Mostly Cloudy
10:20 PM 57.2 °F 55.4 °F 94% 30.06 in 1.1 mi ENE 12.7 mph - N/A   Overcast